Location: Elstree
(51.6403°N, 0.2969°W)
Time: 14:23:11
(UTC+00:00)

Cosmos 1354 Rocket - Pass Details

Date: 20 June 2021
Orbit: 764 x 783 km, 74.0° (Epoch: 25 July)

Event Time Altitude Azimuth Distance (km) Brightness Sun altitude
Rises 00:00:20 0° 326° (NW) 3,284 8.3 -14.9°
Reaches altitude 10° 00:03:12 10° 312° (NW) 2,351 7.1 -14.9°
Maximum altitude 00:07:12 22° 263° (W) 1,658 5.7 -14.9°
Enters shadow 00:10:09 14° 222° (SW) 2,054 5.8 -14.9°
